Location: Atherton
(17.2661°S, 145.4859°E)
Time: 22:57:21
(UTC+10:00)

Vanguard 1 - Pass Details

Date: 30 June 2025
Orbit: 649 x 3822 km, 34.2° (Epoch: 17 July)

Event Time Altitude Azimuth Distance (km) Brightness Sun altitude
Rises 15:15:52 0° 316° (NW) 7,596 15.7 31.3°
Reaches altitude 10° 15:20:51 10° 319° (NW) 6,762 15.9 30.4°
Maximum altitude 15:44:10 66° 37° (NE) 3,803 13.4 26.1°
Drops below altitude 10° 16:01:53 10° 114° (ESE) 5,385 13.3 22.7°
Sets 16:05:17 0° 117° (ESE) 6,057 13.5 22.1°
